Charles City, IA

12:39 PM CDT on May 23, 2018 (GMT -0500)
Charles City Municipal

Weather History for KCCY - October, 2014

Change the Weather History Date:

Tuesday, October 21, 2014

  Actual Average Record
Temperature  
Mean Temperature 48 °F -  
Max Temperature 59 °F 60 °F 81 °F (1953)
Min Temperature 37 °F 37 °F 22 °F (1960)
Degree Days  
Heating Degree Days 17    
Moisture  
Dew Point 39 °F    
Average Humidity 73    
Maximum Humidity 93    
Minimum Humidity 48    
Precipitation  
Precipitation 0.03 in - - ()
Sea Level Pressure  
Sea Level Pressure 30.16 in    
Wind  
Wind Speed 7 mph (East)    
Max Wind Speed 12 mph    
Max Gust Speed 15 mph    
Visibility 10 miles    
Events      
Averages and records for this station are not official NWS values.
T = Trace of Precipitation, MM = Missing Value Source: NWS Daily Summary

Daily Weather History Graph

Daily Weather History Graph

Search for Another Location

Airport or City:

Astronomy

Oct. 21, 2014 Rise Set
Actual Time 7:31 AM CDT 6:18 PM CDT
Civil Twilight 7:02 AM CDT 6:46 PM CDT
Nautical Twilight 6:29 AM CDT 7:20 PM CDT
Astronomical Twilight 5:56 AM CDT 7:52 PM CDT
Moon 5:12 AM CDT (10/21) 5:15 PM CDT (10/21)
Length of Visible Light 11h 44m
Length of Day
10h 46m
Waning Crescent, 5% of the Moon is Illuminated
Oct 21
Waning Crescent
Oct 23
New
Oct 30
First Quarter
Nov 6
Full
Nov 14
Last Quarter

Hourly Weather History & Observations

Time (CDT) Temp. Windchill Dew Point Humidity Pressure Visibility Wind Dir Wind Speed Gust Speed Precip Events Conditions
12:15 AM 44.6 °F 40.7 °F 39.2 °F 81% 30.06 in 10.0 mi ENE 6.9 mph - N/A   Clear
12:35 AM 44.6 °F 40.7 °F 39.2 °F 81% 30.07 in 10.0 mi ENE 6.9 mph - N/A   Clear
12:55 AM 42.8 °F 39.3 °F 39.2 °F 87% 30.07 in 10.0 mi ENE 5.8 mph - N/A   Clear
1:20 AM 42.8 °F 40.1 °F 37.4 °F 81% 30.08 in 10.0 mi NE 4.6 mph - N/A   Clear
1:35 AM 39.2 °F 35.9 °F 37.4 °F 93% 30.09 in 10.0 mi NE 4.6 mph - N/A   Clear
1:55 AM 42.8 °F 39.3 °F 39.2 °F 87% 30.09 in 10.0 mi NE 5.8 mph - N/A   Clear
2:15 AM 41.0 °F 36.4 °F 37.4 °F 87% 30.10 in 10.0 mi NE 6.9 mph - N/A   Clear
2:35 AM 41.0 °F 36.4 °F 39.2 °F 93% 30.10 in 10.0 mi NE 6.9 mph - N/A   Clear
2:55 AM 41.0 °F 37.1 °F 37.4 °F 87% 30.10 in 10.0 mi NE 5.8 mph - N/A   Clear
3:15 AM 39.2 °F 35.0 °F 37.4 °F 93% 30.11 in 10.0 mi NE 5.8 mph - N/A   Clear
3:35 AM 39.2 °F 35.9 °F 37.4 °F 93% 30.11 in 10.0 mi NE 4.6 mph - N/A   Clear
3:55 AM 39.2 °F 35.9 °F 37.4 °F 93% 30.11 in 10.0 mi NE 4.6 mph - N/A   Clear
4:15 AM 39.2 °F 35.9 °F 37.4 °F 93% 30.11 in 10.0 mi NE 4.6 mph - N/A   Clear
4:35 AM 39.2 °F 35.0 °F 37.4 °F 93% 30.12 in 10.0 mi NE 5.8 mph - N/A   Clear
4:55 AM 39.2 °F 34.2 °F 37.4 °F 93% 30.13 in 10.0 mi NE 6.9 mph - N/A   Clear
5:15 AM 39.2 °F 35.0 °F 35.6 °F 87% 30.13 in 10.0 mi NE 5.8 mph - N/A   Clear
5:35 AM 39.2 °F 35.0 °F 35.6 °F 87% 30.14 in 10.0 mi NE 5.8 mph - N/A   Clear
5:55 AM 37.4 °F 31.4 °F 35.6 °F 93% 30.14 in 10.0 mi NE 8.1 mph - N/A   Clear
6:15 AM 37.4 °F 31.4 °F 35.6 °F 93% 30.15 in 10.0 mi NE 8.1 mph - N/A   Clear
6:35 AM 37.4 °F 32.8 °F 35.6 °F 93% 30.15 in 10.0 mi NE 5.8 mph - N/A   Clear
6:55 AM 37.4 °F 32.8 °F 35.6 °F 93% 30.15 in 10.0 mi NE 5.8 mph - N/A   Clear
7:15 AM 39.2 °F 34.2 °F 35.6 °F 87% 30.15 in 10.0 mi ENE 6.9 mph - N/A   Clear
7:35 AM 37.4 °F 32.1 °F 35.6 °F 93% 30.16 in 10.0 mi ENE 6.9 mph - N/A   Clear
7:55 AM 37.4 °F 33.8 °F 35.6 °F 93% 30.17 in 10.0 mi NE 4.6 mph - N/A   Clear
8:15 AM 39.2 °F 35.9 °F 37.4 °F 93% 30.18 in 10.0 mi ENE 4.6 mph - N/A   Clear
8:35 AM 41.0 °F 38.0 °F 39.2 °F 93% 30.18 in 10.0 mi East 4.6 mph - N/A   Clear
8:55 AM 42.8 °F 39.3 °F 39.2 °F 87% 30.19 in 10.0 mi East 5.8 mph - N/A   Clear
9:15 AM 44.6 °F 41.4 °F 39.2 °F 81% 30.19 in 10.0 mi East 5.8 mph - N/A   Clear
9:35 AM 46.4 °F 41.9 °F 39.2 °F 76% 30.20 in 10.0 mi East 9.2 mph - N/A   Clear
9:55 AM 48.2 °F - 41.0 °F 76% 30.21 in 10.0 mi East 10.4 mph - 0.03 in   Clear
10:15 AM 50.0 °F - 41.0 °F 71% 30.20 in 10.0 mi ESE 10.4 mph - N/A   Clear
10:35 AM 51.8 °F - 41.0 °F 67% 30.20 in 10.0 mi ESE 10.4 mph - N/A   Clear
10:55 AM 51.8 °F - 41.0 °F 67% 30.20 in 10.0 mi Variable 6.9 mph 13.8 mph N/A   Clear
11:15 AM 53.6 °F - 41.0 °F 62% 30.20 in 10.0 mi ESE 10.4 mph - N/A   Clear
11:35 AM 53.6 °F - 41.0 °F 62% 30.20 in 10.0 mi ESE 10.4 mph - N/A   Clear
11:55 AM 55.4 °F - 41.0 °F 58% 30.20 in 10.0 mi SE 9.2 mph - N/A   Clear
12:10 PM 55.4 °F - 41.0 °F 58% 30.20 in 10.0 mi ESE 8.1 mph - N/A   Clear
12:35 PM 57.2 °F - 41.0 °F 55% 30.19 in 10.0 mi Variable 5.8 mph 12.7 mph N/A   Clear
12:55 PM 57.2 °F - 41.0 °F 55% 30.18 in 10.0 mi ESE 8.1 mph 15.0 mph N/A   Clear
1:15 PM 57.2 °F - 41.0 °F 55% 30.18 in 10.0 mi East 10.4 mph - N/A   Clear
1:35 PM 57.2 °F - 41.0 °F 55% 30.17 in 10.0 mi East 9.2 mph - N/A   Clear
1:55 PM 59.0 °F - 41.0 °F 51% 30.17 in 10.0 mi SE 8.1 mph - N/A   Clear
2:15 PM 59.0 °F - 41.0 °F 51% 30.17 in 10.0 mi SE 8.1 mph - N/A   Clear
2:35 PM 59.0 °F - 41.0 °F 51% 30.16 in 10.0 mi ESE 10.4 mph - N/A   Clear
2:55 PM 59.0 °F - 39.2 °F 48% 30.16 in 10.0 mi Variable 5.8 mph - N/A   Clear
3:15 PM 59.0 °F - 39.2 °F 48% 30.16 in 10.0 mi SE 10.4 mph - N/A   Clear
3:35 PM 59.0 °F - 39.2 °F 48% 30.15 in 10.0 mi ESE 10.4 mph - N/A   Clear
3:55 PM 59.0 °F - 39.2 °F 48% 30.16 in 10.0 mi ESE 6.9 mph - N/A   Clear
4:15 PM 59.0 °F - 39.2 °F 48% 30.16 in 10.0 mi SE 6.9 mph - N/A   Clear
4:35 PM 59.0 °F - 39.2 °F 48% 30.16 in 10.0 mi East 10.4 mph - N/A   Clear
4:55 PM 59.0 °F - 39.2 °F 48% 30.16 in 10.0 mi ESE 9.2 mph - N/A   Clear
5:15 PM 59.0 °F - 39.2 °F 48% 30.16 in 10.0 mi ESE 8.1 mph - N/A   Clear
5:35 PM 57.2 °F - 39.2 °F 51% 30.16 in 10.0 mi SE 6.9 mph 12.7 mph N/A   Clear
5:55 PM 55.4 °F - 39.2 °F 54% 30.17 in 10.0 mi SE 5.8 mph - N/A   Clear
6:15 PM 53.6 °F - 39.2 °F 58% 30.16 in 10.0 mi ESE 5.8 mph - N/A   Clear
6:35 PM 51.8 °F - 39.2 °F 62% 30.17 in 10.0 mi ESE 5.8 mph - N/A   Clear
6:55 PM 50.0 °F - 39.2 °F 66% 30.17 in 10.0 mi ESE 5.8 mph - N/A   Clear
7:15 PM 50.0 °F - 39.2 °F 66% 30.18 in 10.0 mi ESE 5.8 mph - N/A   Clear
7:35 PM 46.4 °F 42.9 °F 37.4 °F 71% 30.18 in 10.0 mi ESE 6.9 mph - N/A   Clear
7:55 PM 48.2 °F - 39.2 °F 71% 30.19 in 10.0 mi ESE 8.1 mph - N/A   Clear
8:15 PM 48.2 °F - 39.2 °F 71% 30.19 in 10.0 mi ESE 6.9 mph - N/A   Clear
8:35 PM 48.2 °F - 39.2 °F 71% 30.19 in 10.0 mi ESE 8.1 mph - N/A   Clear
8:55 PM 48.2 °F - 37.4 °F 66% 30.19 in 10.0 mi ESE 9.2 mph - N/A   Clear
9:15 PM 48.2 °F - 37.4 °F 66% 30.20 in 10.0 mi SE 10.4 mph - N/A   Clear
9:35 PM 46.4 °F 41.9 °F 37.4 °F 71% 30.20 in 10.0 mi SE 9.2 mph - N/A   Clear
9:50 PM 46.4 °F 41.5 °F 37.4 °F 71% 30.21 in 10.0 mi ESE 10.4 mph - N/A   Clear
10:15 PM 46.4 °F 41.9 °F 37.4 °F 71% 30.21 in 10.0 mi ESE 9.2 mph - N/A   Clear
10:35 PM 44.6 °F 39.7 °F 37.4 °F 76% 30.21 in 10.0 mi SE 9.2 mph - N/A   Clear
10:55 PM 44.6 °F 38.8 °F 37.4 °F 76% 30.21 in 10.0 mi ESE 11.5 mph - N/A   Clear
11:15 PM 44.6 °F 38.8 °F 37.4 °F 76% 30.22 in 10.0 mi ESE 11.5 mph - N/A   Clear
11:35 PM 44.6 °F 39.7 °F 37.4 °F 76% 30.22 in 10.0 mi SE 9.2 mph - N/A   Clear
11:55 PM 42.8 °F 38.0 °F 37.4 °F 81% 30.23 in 10.0 mi SE 8.1 mph - N/A   Clear